Regional Weather Roundup
Issued by NWS

Home | Current Version | Previous Version | Text Only | Print | Product List | Glossary Off
Versions: 1 2 3 4 5 6 7 8 9 10 11 12 13 14 15 16 17 18 19 20 21 22 23 24 25 26 27 28

000
ASUS45 KPSR 220810
RWRAZ

ARIZONA HOURLY REGIONAL WEATHER ROUNDUP
NATIONAL WEATHER SERVICE PHOENIX AZ
100 AM MST THU FEB 22 2018

NOTE: FAIR INDICATES FEW OR NO CLOUDS BELOW 12,000 FEET WITH NO
SIGNIFICANT WEATHER AND/OR OBSTRUCTIONS TO VISIBILITY.

AZZ001>003-036-220900-
NORTHWEST ARIZONA

CITY           SKY/WX    TMP DP  RH WIND       PRES   REMARKS
BULLHEAD CITY  FAIR      43   5  21 CALM      30.11F
KINGMAN        FAIR      25   8  48 S5        30.07F WCI  19
$$

AZZ004>008-015-016-018-220900-
NORTH CENTRAL ARIZONA

CITY           SKY/WX    TMP DP  RH WIND       PRES   REMARKS
GRAND CANYON   FAIR      10   7  87 CALM      30.00S
WILLIAMS       MOCLDY    18   5  57 S5        29.98S WCI  11
PRESCOTT       CLOUDY    27   6  41 S5        30.04S WCI  22
FLAGSTAFF      FAIR      16   4  59 CALM      29.98F
PAYSON         MOCLDY    32  12  43 CALM      30.03F
PAGE           CLOUDY    35  17  47 NW3       30.01F
$$

AZZ009>014-017-220900-
NORTHEAST ARIZONA

CITY           SKY/WX    TMP DP  RH WIND       PRES   REMARKS
WINSLOW        CLOUDY    31  11  43 SW5       30.03S WCI  26
SAINT JOHNS    MOCLDY    34  27  75 W10       30.00F WCI  26
WINDOW ROCK    LGT SNOW  28  26  92 S6        30.00S FOG     WCI  22
SHOW LOW       LGT SNOW  28  25  86 SW10      30.04S WCI  19
$$

AZZ540-542>544-546-548-220900-
GREATER PHOENIX AREA

CITY           SKY/WX    TMP DP  RH WIND       PRES   REMARKS
PHOENIX        FAIR      51   8  17 W8        30.07S
BUCKEYE        MOCLDY    43   3  19 N7        30.10R
LUKE AFB       FAIR      47  10  22 S7        30.07R
DEER VALLEY    MOCLDY    45  12  26 E5        30.06S
SCOTTSDALE     FAIR      45  21  38 CALM      30.08S
MESA-GATEWAY   FAIR      45  24  43 CALM      30.09R
$$

AZZ539-553-220900-
SOUTHWEST MARICOPA COUNTY AND PINAL COUNTY

CITY           SKY/WX    TMP DP  RH WIND       PRES   REMARKS
CASA GRANDE      N/A     44  19  36 W5        30.10R
GILA BEND      FAIR      43  10  25 S9        30.10S
$$

AZZ503-504-507>509-220900-
SOUTHEAST ARIZONA

CITY           SKY/WX    TMP DP  RH WIND       PRES   REMARKS
TUCSON         CLOUDY    48  20  32 W6        30.10S
DAVIS-MONTHAN  CLOUDY    46  19  34 NW5       30.08S
NOGALES        FAIR      38  24  57 E5        30.09S WCI  34
SIERRA VISTA   FAIR      39  22  49 W9        30.09R WCI  33
DOUGLAS        FAIR      41  25  53 SW9       30.07R
SAFFORD        FAIR      46  20  35 NW10      30.04R
$$

AZZ532-220900-
SOUTHWEST ARIZONA

CITY           SKY/WX    TMP DP  RH WIND       PRES   REMARKS
YUMA           FAIR      47  30  51 W8        30.13S
$$

CAZ041-043-047-048-061-525>527-560>570-220900-
SOUTHERN CALIFORNIA

CITY           SKY/WX    TMP DP  RH WIND       PRES   REMARKS
DOWNTOWN L.A.  FAIR      49  34  56 CALM      30.17R
L.A. AIRPORT   FAIR      53  33  46 CALM      30.17S
SAN DIEGO      FAIR      51  39  63 CALM      30.22R
BURBANK        FAIR      46  25  43 CALM      30.15R
ONTARIO        FAIR      43  28  55 CALM      30.16S
RIVERSIDE      FAIR      42  34  73 SE5       30.17S
PALM SPRINGS   FAIR      52  28  39 CALM      30.15R
EL CENTRO NAS  FAIR      46  29  51 SW13      30.15F
IMPERIAL       FAIR      48  30  49 SW10      30.14S
BLYTHE         FAIR      39   1  20 CALM      30.12S
NEEDLES        FAIR      42   4  20 SW5       30.11S
$$

NVZ020-UTZ003-220900-
SOUTHERN NEVADA-UTAH

CITY           SKY/WX    TMP DP  RH WIND       PRES   REMARKS
LAS VEGAS      FAIR      40  12  32 S5        30.09S
SALT LAKE CITY FAIR      20  11  68 E7        30.05F WCI  11
$$

NMZ009-TXZ055-220900-
NEW MEXICO-WEST TEXAS

CITY           SKY/WX    TMP DP  RH WIND       PRES   REMARKS
ALBUQUERQUE    CLOUDY    35  22  58 N8        30.02F WCI  29
EL PASO        FAIR      41  21  44 SE7       30.07R
$$


........................KEY........................
SKY/WX - SKY CONDITION/WEATHER
TMP    - TEMPERATURE IN FAHRENHEIT
DP     - DEW POINT IN FAHRENHEIT
RH     - RELATIVE HUMIDITY IN PERCENT
WIND   - DIRECTION AND SPEED IN MILES PER HOUR (MPH)
VRB    - VARIABLE WIND DIRECTION
PRES   - MEAN SEA LEVEL PRESSURE IN INCHES OF MERCURY
         F - FALLING PRESSURE   R - RISING PRESSURE
         S - STEADY PRESSURE
VSB    - VISIBILITY IN MILES
HX     - HEAT INDEX IN FAHRENHEIT
WCI    - WIND CHILL INDEX IN FAHRENHEIT
TC     - TEMPERATURE IN CELSIUS WHICH IS ALSO KNOWN AS
         TEMPERATURE IN CENTIGRADE
AFB    - AIR FORCE BASE
         LUKE AFB IS LUKE AIR FORCE BASE
         DAVIS-MONTHAN IS DAVIS-MONTHAN AIR FORCE BASE
NAS    - NAVAL AIR STATION
         EL CENTRO NAS IS EL CENTRO NAVAL AIR STATION
N/A    - NOT AVAILABLE





USA.gov is the U.S. government's official web portal to all federal, state and local government web resources and services.